{"data":{"norad_id":67701,"epoch":"2026-09-19T06:21:28.926432Z","epoch_age_seconds":175539,"freshness":"STALE","line1":"1 67701U 26025J   26262.26491813  .00025294  00000+0  78311-3 0  9992","line2":"2 67701  97.2892  12.1380 0002335 106.7320 253.4179 15.33446671 35680","mean_motion":15.33446671,"eccentricity":0.0002335,"inclination_deg":97.2892,"raan_deg":12.138,"arg_perigee_deg":106.732,"mean_anomaly_deg":253.4179,"bstar":0.00078311,"rev_number":3568,"period_min":93.90610232705,"perigee_km":463.94020460245,"apogee_km":467.13620092214,"semimajor_km":6843.6752027623,"source":"CELESTRAK","updated_at":"2026-09-20T09:00:43.628934Z"}}